User: anonymous
Location: Unspecified
(0.0000°N, 0.0000°E)
Time: 23:35:18
(UTC+02:00)
Language:

Cosmos 1898 Rocket - Orbit

View from above orbital plane
View from above orbital plane
View from above satellite
View from above satellite

Ground track
Ground track

The orbit data is extracted from the following two-line orbital elements,

1 18586U 87098B   14259.72685488  .00000167  00000-0  66005-4 0  1211
2 18586 074.0096 344.6107 0022246 279.1266 238.8203 14.36455978403117
Epoch (UTC): 16 September 2014 17:26:40
Eccentricity: 0.0022246
inclination: 74.0096°
perigee height: 754 km
apogee height: 786 km
right ascension of ascending node: 344.6107°
argument of perigee: 279.1266°
revolutions per day: 14.36455978
mean anomaly at epoch: 238.8203°
orbit number at epoch: 40311

The dashed part of the orbit path shows where the satellite is in the earth's shadow,  

DLR